| time (UTC) | temp C | wind direction | speed KPH | gust KPH | rain 1hr cm | rain 24hr cm | rain mn cm | humidity % | barometer mb |
| 20260906204830 | 27 | 119 | 1.6 | 3.2 | 0.00 | 0.00 | 0.00 | 72 | 1016.3 |
| 20260906204329 | 28 | 204 | 1.6 | 3.2 | 0.00 | 0.00 | 0.00 | 72 | 1016.3 |
| 20260906203828 | 27 | 147 | 3.2 | 3.2 | 0.00 | 0.00 | 0.00 | 72 | 1016.1 |
| 20260906203324 | 27 | 200 | 1.6 | 1.6 | 0.00 | 0.00 | 0.00 | 72 | 1015.8 |
| 20260906202821 | 27 | 208 | 1.6 | 8.0 | 0.00 | 0.00 | 0.00 | 72 | 1015.8 |
| 20260906202320 | 27 | 239 | 1.6 | 9.7 | 0.00 | 0.00 | 0.00 | 72 | 1015.9 |
| 20260906201815 | 27 | 242 | 1.6 | 4.8 | 0.00 | 0.00 | 0.00 | 72 | 1016.1 |
| 20260906201314 | 27 | 138 | 3.2 | 8.0 | 0.00 | 0.00 | 0.00 | 72 | 1016.1 |
| 20260906200810 | 27 | 202 | 0.0 | 4.8 | 0.00 | 0.00 | 0.00 | 72 | 1015.9 |
| 20260906200306 | 28 | 264 | 0.0 | 3.2 | 0.00 | 0.00 | 0.00 | 70 | 1015.6 |
| 20260906195801 | 28 | 358 | 3.2 | 4.8 | 0.00 | 0.00 | 0.00 | 69 | 1015.7 |
| 20260906195257 | 28 | 144 | 4.8 | 4.8 | 0.00 | 0.00 | 0.00 | 69 | 1015.7 |
| 20260906194753 | 28 | 180 | 0.0 | 8.0 | 0.00 | 0.00 | 0.00 | 69 | 1015.5 |
| 20260906194248 | 28 | 58 | 3.2 | 4.8 | 0.00 | 0.00 | 0.00 | 70 | 1015.6 |
| 20260906193743 | 28 | 173 | 0.0 | 4.8 | 0.00 | 0.00 | 0.00 | 70 | 1015.2 |
| 20260906193238 | 28 | 211 | 1.6 | 3.2 | 0.00 | 0.00 | 0.00 | 70 | 1015.4 |
| 20260906192734 | 28 | 20 | 3.2 | 3.2 | 0.00 | 0.00 | 0.00 | 70 | 1015.7 |
| 20260906192233 | 28 | 116 | 3.2 | 4.8 | 0.00 | 0.00 | 0.00 | 70 | 1015.8 |
| 20260906191732 | 27 | 261 | 1.6 | 3.2 | 0.00 | 0.00 | 0.00 | 71 | 1015.5 |
| 20260906191227 | 27 | 183 | 0.0 | 1.6 | 0.00 | 0.00 | 0.00 | 70 | 1015.7 |
| 20260906190722 | 28 | 199 | 1.6 | 4.8 | 0.00 | 0.00 | 0.00 | 69 | 1016.3 |
| 20260906190217 | 29 | 237 | 0.0 | 3.2 | 0.00 | 0.00 | 0.00 | 67 | 1016.1 |
| 20260906185716 | 29 | 203 | 1.6 | 3.2 | 0.00 | 0.00 | 0.00 | 67 | 1016.3 |
| 20260906185215 | 28 | 201 | 0.0 | 8.0 | 0.00 | 0.00 | 0.00 | 68 | 1016.1 |
| 20260906184710 | 29 | 60 | 3.2 | 4.8 | 0.00 | 0.00 | 0.00 | 67 | 1016.3 |
| 20260906184205 | 28 | 171 | 0.0 | 3.2 | 0.00 | 0.00 | 0.00 | 69 | 1016.4 |
| 20260906183701 | 28 | 39 | 4.8 | 9.7 | 0.00 | 0.00 | 0.00 | 69 | 1016.6 |
| 20260906183157 | 27 | 232 | 9.7 | 12.9 | 0.00 | 0.00 | 0.00 | 69 | 1016.6 |
| 20260906182656 | 28 | 184 | 1.6 | 4.8 | 0.00 | 0.00 | 0.00 | 69 | 1016.5 |
| 20260906182153 | 27 | 174 | 1.6 | 3.2 | 0.00 | 0.00 | 0.00 | 70 | 1016.7 |
| 20260906181648 | 27 | 201 | 1.6 | 8.0 | 0.00 | 0.00 | 0.00 | 71 | 1016.8 |
| 20260906181144 | 27 | 198 | 4.8 | 4.8 | 0.00 | 0.00 | 0.00 | 70 | 1016.8 |
| 20260906180638 | 27 | 196 | 1.6 | 1.6 | 0.00 | 0.00 | 0.00 | 72 | 1016.8 |
| 20260906180133 | 27 | 228 | 0.0 | 1.6 | 0.00 | 0.00 | 0.00 | 72 | 1017.1 |
| 20260906175631 | 26 | 167 | 0.0 | 3.2 | 0.00 | 0.00 | 0.00 | 72 | 1017.3 |
| 20260906175126 | 27 | 205 | 0.0 | 1.6 | 0.00 | 0.00 | 0.00 | 71 | 1017.3 |
| 20260906174624 | 26 | 215 | 1.6 | 3.2 | 0.00 | 0.00 | 0.00 | 72 | 1017.3 |
| 20260906174120 | 26 | 198 | 1.6 | 3.2 | 0.00 | 0.00 | 0.00 | 72 | 1017.3 |
| 20260906173614 | 26 | 305 | 0.0 | 3.2 | 0.00 | 0.00 | 0.00 | 72 | 1017.3 |
| 20260906173109 | 26 | 198 | 0.0 | 3.2 | 0.00 | 0.00 | 0.00 | 72 | 1017.2 |
| 20260906172604 | 26 | 215 | 0.0 | 1.6 | 0.00 | 0.00 | 0.00 | 73 | 1017.5 |
| 20260906172100 | 26 | 145 | 0.0 | 4.8 | 0.00 | 0.00 | 0.00 | 72 | 1017.5 |
| 20260906171559 | 26 | 118 | 0.0 | 1.6 | 0.00 | 0.00 | 0.00 | 72 | 1017.4 |
| 20260906171055 | 26 | 218 | 1.6 | 3.2 | 0.00 | 0.00 | 0.00 | 73 | 1017.6 |
| 20260906170550 | 26 | 132 | 0.0 | 4.8 | 0.00 | 0.00 | 0.00 | 73 | 1017.7 |
| 20260906170049 | 26 | 202 | 1.6 | 3.2 | 0.00 | 0.00 | 0.00 | 73 | 1017.6 |
| 20260906165547 | 26 | 212 | 3.2 | 4.8 | 0.00 | 0.00 | 0.00 | 72 | 1017.9 |
| 20260906165041 | 26 | 188 | 0.0 | 3.2 | 0.00 | 0.00 | 0.00 | 72 | 1017.6 |
| 20260906164540 | 26 | 176 | 1.6 | 3.2 | 0.00 | 0.00 | 0.00 | 72 | 1018.0 |
| 20260906164037 | 26 | 200 | 0.0 | 3.2 | 0.00 | 0.00 | 0.00 | 72 | 1017.8 |
| 20260906163531 | 26 | 195 | 1.6 | 4.8 | 0.00 | 0.00 | 0.00 | 73 | 1017.7 |
| 20260906163027 | 25 | 198 | 1.6 | 3.2 | 0.00 | 0.00 | 0.00 | 74 | 1018.1 |
| 20260906162524 | 25 | 156 | 1.6 | 3.2 | 0.00 | 0.00 | 0.00 | 75 | 1017.8 |
| 20260906162019 | 25 | 192 | 0.0 | 4.8 | 0.00 | 0.00 | 0.00 | 75 | 1018.0 |
| 20260906161514 | 24 | 182 | 1.6 | 3.2 | 0.00 | 0.00 | 0.00 | 76 | 1018.1 |
| 20260906161013 | 24 | 213 | 1.6 | 1.6 | 0.00 | 0.00 | 0.00 | 77 | 1017.9 |
| 20260906160512 | 23 | 122 | 4.8 | 4.8 | 0.00 | 0.00 | 0.00 | 78 | 1018.0 |
| 20260906160011 | 23 | 206 | 0.0 | 8.0 | 0.00 | 0.00 | 0.00 | 78 | 1017.9 |
| 20260906155509 | 23 | 195 | 1.6 | 3.2 | 0.00 | 0.00 | 0.00 | 78 | 1018.3 |
| 20260906155005 | 23 | 203 | 0.0 | 4.8 | 0.00 | 0.00 | 0.00 | 79 | 1018.0 |
| 20260906154500 | 23 | 150 | 1.6 | 3.2 | 0.00 | 0.00 | 0.00 | 80 | 1018.2 |
| 20260906153958 | 23 | 178 | 1.6 | 3.2 | 0.00 | 0.00 | 0.00 | 81 | 1018.1 |
| 20260906153457 | 22 | 53 | 3.2 | 4.8 | 0.00 | 0.00 | 0.00 | 80 | 1018.1 |
| 20260906152953 | 22 | 202 | 0.0 | 3.2 | 0.00 | 0.00 | 0.00 | 81 | 1018.2 |
| 20260906152453 | 22 | 228 | 0.0 | 1.6 | 0.00 | 0.00 | 0.00 | 82 | 1018.3 |
| 20260906151947 | 22 | 229 | 1.6 | 3.2 | 0.00 | 0.00 | 0.00 | 83 | 1018.1 |
| 20260906151442 | 21 | 248 | 1.6 | 3.2 | 0.00 | 0.00 | 0.00 | 84 | 1018.2 |
| 20260906150938 | 21 | 203 | 3.2 | 4.8 | 0.00 | 0.00 | 0.00 | 84 | 1018.3 |
| 20260906150433 | 21 | 170 | 1.6 | 4.8 | 0.00 | 0.00 | 0.00 | 84 | 1018.1 |
| 20260906145932 | 21 | 225 | 3.2 | 4.8 | 0.00 | 0.00 | 0.00 | 84 | 1018.3 |
| 20260906145432 | 21 | 197 | 0.0 | 1.6 | 0.00 | 0.00 | 0.00 | 85 | 1018.2 |
| 20260906144927 | 21 | 198 | 1.6 | 3.2 | 0.00 | 0.00 | 0.00 | 85 | 1018.3 |
| 20260906144421 | 21 | 174 | 1.6 | 3.2 | 0.00 | 0.00 | 0.00 | 85 | 1018.1 |
| 20260906143917 | 21 | 203 | 0.0 | 3.2 | 0.00 | 0.00 | 0.00 | 85 | 1018.4 |
| 20260906143412 | 21 | 169 | 3.2 | 3.2 | 0.00 | 0.00 | 0.00 | 84 | 1018.2 |
| 20260906142908 | 21 | 185 | 1.6 | 3.2 | 0.00 | 0.00 | 0.00 | 85 | 1018.3 |
| 20260906142408 | 20 | 207 | 0.0 | 3.2 | 0.00 | 0.00 | 0.00 | 87 | 1018.0 |
| 20260906141902 | 20 | 190 | 0.0 | 1.6 | 0.00 | 0.00 | 0.00 | 87 | 1018.2 |
| 20260906141401 | 20 | 185 | 0.0 | 1.6 | 0.00 | 0.00 | 0.00 | 89 | 1018.1 |
| 20260906140856 | 19 | 295 | 1.6 | 1.6 | 0.00 | 0.00 | 0.00 | 89 | 1018.3 |
| 20260906140351 | 19 | 188 | 0.0 | 1.6 | 0.00 | 0.00 | 0.00 | 90 | 1018.1 |
| 20260906135849 | 18 | 204 | 1.6 | 3.2 | 0.00 | 0.00 | 0.00 | 92 | 1018.1 |
| 20260906135349 | 18 | 212 | 0.0 | 3.2 | 0.00 | 0.00 | 0.00 | 92 | 1018.1 |
| 20260906134844 | 18 | 255 | 0.0 | 1.6 | 0.00 | 0.00 | 0.00 | 93 | 1018.3 |
| 20260906134339 | 18 | 191 | 0.0 | 1.6 | 0.00 | 0.00 | 0.00 | 93 | 1018.0 |
| 20260906133835 | 18 | 202 | 0.0 | 0.0 | 0.00 | 0.00 | 0.00 | 93 | 1018.4 |
| 20260906133330 | 17 | 205 | 0.0 | 1.6 | 0.00 | 0.00 | 0.00 | 94 | 1018.2 |
| 20260906132826 | 17 | 215 | 0.0 | 0.0 | 0.00 | 0.00 | 0.00 | 94 | 1018.3 |
| 20260906132321 | 17 | 180 | 1.6 | 1.6 | 0.00 | 0.00 | 0.00 | 94 | 1018.4 |
| 20260906131816 | 17 | 213 | 0.0 | 1.6 | 0.00 | 0.00 | 0.00 | 94 | 1018.5 |
| 20260906131312 | 17 | 164 | 1.6 | 3.2 | 0.00 | 0.00 | 0.00 | 94 | 1018.2 |
| 20260906130807 | 17 | 206 | 0.0 | 3.2 | 0.00 | 0.00 | 0.00 | 95 | 1018.3 |
| 20260906130307 | 17 | 212 | 0.0 | 1.6 | 0.00 | 0.00 | 0.00 | 95 | 1018.4 |
| 20260906125805 | 17 | 210 | 0.0 | 1.6 | 0.00 | 0.00 | 0.00 | 95 | 1018.3 |
| 20260906125306 | 16 | 181 | 0.0 | 1.6 | 0.00 | 0.00 | 0.00 | 95 | 1018.5 |
| 20260906124758 | 16 | 212 | 0.0 | 0.0 | 0.00 | 0.00 | 0.00 | 95 | 1018.2 |
| 20260906124254 | 16 | 219 | 0.0 | 0.0 | 0.00 | 0.00 | 0.00 | 95 | 1018.3 |
| 20260906123753 | 16 | 208 | 0.0 | 0.0 | 0.00 | 0.00 | 0.00 | 95 | 1018.4 |
| 20260906123248 | 16 | 204 | 0.0 | 1.6 | 0.00 | 0.00 | 0.00 | 95 | 1018.0 |
| 20260906122748 | 16 | 202 | 0.0 | 0.0 | 0.00 | 0.00 | 0.00 | 95 | 1018.3 |
| 20260906122243 | 16 | 213 | 0.0 | 0.0 | 0.00 | 0.00 | 0.00 | 95 | 1018.3 |
| 20260906121740 | 16 | 213 | 0.0 | 0.0 | 0.00 | 0.00 | 0.00 | 95 | 1018.3 |
| 20260906121236 | 16 | 205 | 0.0 | 1.6 | 0.00 | 0.00 | 0.00 | 95 | 1018.2 |
| 20260906120731 | 16 | 199 | 0.0 | 1.6 | 0.00 | 0.00 | 0.00 | 95 | 1018.4 |
| 20260906120228 | 16 | 190 | 0.0 | 1.6 | 0.00 | 0.00 | 0.00 | 95 | 1018.2 |
| 20260906115723 | 16 | 206 | 0.0 | 0.0 | 0.00 | 0.00 | 0.00 | 94 | 1017.9 |
| 20260906115218 | 16 | 205 | 0.0 | 0.0 | 0.00 | 0.00 | 0.00 | 94 | 1018.4 |
| 20260906114717 | 16 | 207 | 0.0 | 0.0 | 0.00 | 0.00 | 0.00 | 94 | 1018.1 |
| 20260906114212 | 16 | 210 | 0.0 | 0.0 | 0.00 | 0.00 | 0.00 | 94 | 1018.2 |
| 20260906113708 | 16 | 209 | 0.0 | 0.0 | 0.00 | 0.00 | 0.00 | 94 | 1017.9 |
| 20260906113207 | 17 | 208 | 0.0 | 0.0 | 0.00 | 0.00 | 0.00 | 94 | 1018.1 |
| 20260906112707 | 17 | 204 | 0.0 | 0.0 | 0.00 | 0.00 | 0.00 | 94 | 1018.1 |
| 20260906112204 | 17 | 207 | 0.0 | 0.0 | 0.00 | 0.00 | 0.00 | 94 | 1018.2 |
| 20260906111703 | 17 | 205 | 0.0 | 0.0 | 0.00 | 0.00 | 0.00 | 94 | 1018.2 |
| 20260906111158 | 17 | 214 | 0.0 | 0.0 | 0.00 | 0.00 | 0.00 | 94 | 1018.3 |
| 20260906110653 | 17 | 208 | 0.0 | 0.0 | 0.00 | 0.00 | 0.00 | 94 | 1018.1 |
| 20260906110148 | 17 | 215 | 0.0 | 0.0 | 0.00 | 0.00 | 0.00 | 94 | 1018.0 |
| 20260906105642 | 17 | 213 | 0.0 | 0.0 | 0.00 | 0.00 | 0.00 | 94 | 1018.1 |
| 20260906105138 | 17 | 213 | 0.0 | 0.0 | 0.00 | 0.00 | 0.00 | 94 | 1018.1 |
| 20260906104638 | 17 | 194 | 0.0 | 1.6 | 0.00 | 0.00 | 0.00 | 94 | 1018.1 |
| 20260906104137 | 16 | 196 | 1.6 | 1.6 | 0.00 | 0.00 | 0.00 | 94 | 1017.8 |
| 20260906103635 | 16 | 203 | 0.0 | 1.6 | 0.00 | 0.00 | 0.00 | 95 | 1018.0 |
| 20260906103130 | 16 | 208 | 0.0 | 0.0 | 0.00 | 0.00 | 0.00 | 94 | 1017.8 |
| 20260906102626 | 16 | 208 | 0.0 | 0.0 | 0.00 | 0.00 | 0.00 | 94 | 1017.9 |
| 20260906102120 | 16 | 213 | 0.0 | 0.0 | 0.00 | 0.00 | 0.00 | 94 | 1017.6 |
| 20260906101615 | 16 | 208 | 0.0 | 1.6 | 0.00 | 0.00 | 0.00 | 94 | 1017.7 |
| 20260906101115 | 16 | 206 | 0.0 | 1.6 | 0.00 | 0.00 | 0.00 | 94 | 1017.6 |
| 20260906100610 | 16 | 211 | 0.0 | 0.0 | 0.00 | 0.00 | 0.00 | 94 | 1017.5 |
| 20260906100105 | 16 | 210 | 0.0 | 0.0 | 0.00 | 0.00 | 0.00 | 94 | 1017.5 |
| 20260906095604 | 16 | 212 | 0.0 | 3.2 | 0.00 | 0.00 | 0.00 | 94 | 1017.5 |
| 20260906095100 | 16 | 215 | 0.0 | 0.0 | 0.00 | 0.00 | 0.00 | 94 | 1017.5 |
| 20260906094559 | 16 | 190 | 1.6 | 3.2 | 0.00 | 0.00 | 0.00 | 94 | 1017.5 |
| 20260906094054 | 16 | 195 | 0.0 | 1.6 | 0.00 | 0.00 | 0.00 | 94 | 1017.4 |
| 20260906093550 | 16 | 206 | 0.0 | 1.6 | 0.00 | 0.00 | 0.00 | 94 | 1017.2 |
| 20260906093045 | 16 | 210 | 0.0 | 1.6 | 0.00 | 0.00 | 0.00 | 94 | 1017.2 |
| 20260906092540 | 16 | 216 | 0.0 | 1.6 | 0.00 | 0.00 | 0.00 | 94 | 1017.1 |
| 20260906092036 | 16 | 205 | 0.0 | 1.6 | 0.00 | 0.00 | 0.00 | 94 | 1017.2 |
| 20260906091531 | 17 | 202 | 0.0 | 0.0 | 0.00 | 0.00 | 0.00 | 94 | 1017.1 |
| 20260906091027 | 17 | 159 | 0.0 | 0.0 | 0.00 | 0.00 | 0.00 | 94 | 1017.0 |
| 20260906090522 | 17 | 207 | 0.0 | 0.0 | 0.00 | 0.00 | 0.00 | 93 | 1017.2 |
| 20260906090017 | 17 | 214 | 0.0 | 1.6 | 0.00 | 0.00 | 0.00 | 93 | 1017.5 |
| 20260906085516 | 17 | 201 | 0.0 | 0.0 | 0.00 | 0.00 | 0.00 | 93 | 1017.2 |
| 20260906085015 | 17 | 198 | 0.0 | 0.0 | 0.00 | 0.00 | 0.00 | 93 | 1017.3 |
| 20260906084510 | 17 | 206 | 0.0 | 1.6 | 0.00 | 0.00 | 0.00 | 93 | 1017.6 |
| 20260906084009 | 17 | 215 | 0.0 | 1.6 | 0.00 | 0.00 | 0.00 | 93 | 1017.5 |
| 20260906083505 | 17 | 248 | 0.0 | 0.0 | 0.00 | 0.00 | 0.00 | 93 | 1017.6 |
| 20260906083004 | 17 | 199 | 0.0 | 1.6 | 0.00 | 0.00 | 0.00 | 93 | 1017.6 |
| 20260906082459 | 17 | 212 | 0.0 | 1.6 | 0.00 | 0.00 | 0.00 | 93 | 1017.5 |
| 20260906081955 | 17 | 187 | 0.0 | 1.6 | 0.00 | 0.00 | 0.00 | 93 | 1017.5 |
| 20260906081450 | 17 | 189 | 1.6 | 3.2 | 0.00 | 0.00 | 0.00 | 93 | 1017.7 |
| 20260906080946 | 17 | 197 | 0.0 | 1.6 | 0.00 | 0.00 | 0.00 | 93 | 1017.7 |
| 20260906080442 | 17 | 211 | 0.0 | 0.0 | 0.00 | 0.00 | 0.00 | 92 | 1017.7 |
| 20260906075937 | 17 | 208 | 0.0 | 1.6 | 0.00 | 0.00 | 0.00 | 92 | 1017.4 |
| 20260906075431 | 17 | 210 | 0.0 | 1.6 | 0.00 | 0.00 | 0.00 | 92 | 1017.7 |
| 20260906074927 | 17 | 195 | 0.0 | 0.0 | 0.00 | 0.00 | 0.00 | 92 | 1017.6 |
| 20260906074421 | 17 | 203 | 0.0 | 0.0 | 0.00 | 0.00 | 0.00 | 92 | 1017.7 |
| 20260906073920 | 17 | 210 | 0.0 | 0.0 | 0.00 | 0.00 | 0.00 | 92 | 1017.9 |
| 20260906073415 | 17 | 197 | 1.6 | 1.6 | 0.00 | 0.00 | 0.00 | 92 | 1017.7 |
| 20260906072911 | 17 | 215 | 0.0 | 0.0 | 0.00 | 0.00 | 0.00 | 92 | 1017.5 |
| 20260906072406 | 17 | 195 | 0.0 | 0.0 | 0.00 | 0.00 | 0.00 | 92 | 1017.7 |
| 20260906071902 | 17 | 210 | 0.0 | 1.6 | 0.00 | 0.00 | 0.00 | 91 | 1017.8 |
| 20260906071357 | 17 | 198 | 0.0 | 1.6 | 0.00 | 0.00 | 0.00 | 91 | 1017.7 |
| 20260906070853 | 17 | 202 | 0.0 | 1.6 | 0.00 | 0.00 | 0.00 | 91 | 1017.4 |
| 20260906070349 | 18 | 204 | 0.0 | 0.0 | 0.00 | 0.00 | 0.00 | 91 | 1017.6 |
| 20260906065844 | 18 | 196 | 0.0 | 1.6 | 0.00 | 0.00 | 0.00 | 91 | 1017.7 |
| 20260906065339 | 18 | 204 | 0.0 | 1.6 | 0.00 | 0.00 | 0.00 | 91 | 1017.6 |
| 20260906064834 | 18 | 6 | 0.0 | 0.0 | 0.00 | 0.00 | 0.00 | 91 | 1017.3 |
| 20260906064331 | 18 | 98 | 0.0 | 1.6 | 0.00 | 0.00 | 0.00 | 91 | 1017.5 |
| 20260906063831 | 18 | 188 | 0.0 | 0.0 | 0.00 | 0.00 | 0.00 | 91 | 1017.4 |
| 20260906063326 | 18 | 181 | 0.0 | 0.0 | 0.00 | 0.00 | 0.00 | 90 | 1017.5 |
| 20260906062821 | 18 | 156 | 0.0 | 1.6 | 0.00 | 0.00 | 0.00 | 90 | 1017.4 |
| 20260906062320 | 18 | 213 | 0.0 | 0.0 | 0.00 | 0.00 | 0.00 | 90 | 1017.6 |
| 20260906061816 | 18 | 213 | 0.0 | 0.0 | 0.00 | 0.00 | 0.00 | 90 | 1017.5 |
| 20260906061312 | 18 | 206 | 0.0 | 0.0 | 0.00 | 0.00 | 0.00 | 90 | 1017.5 |
| 20260906060807 | 18 | 202 | 0.0 | 0.0 | 0.00 | 0.00 | 0.00 | 90 | 1017.7 |
| 20260906060305 | 18 | 208 | 0.0 | 0.0 | 0.00 | 0.00 | 0.00 | 89 | 1017.5 |
| 20260906055800 | 18 | 210 | 0.0 | 0.0 | 0.00 | 0.00 | 0.00 | 89 | 1017.4 |
| 20260906055255 | 18 | 213 | 0.0 | 0.0 | 0.00 | 0.00 | 0.00 | 89 | 1017.4 |
| 20260906054750 | 18 | 198 | 0.0 | 0.0 | 0.00 | 0.00 | 0.00 | 89 | 1017.4 |
| 20260906054246 | 18 | 198 | 0.0 | 1.6 | 0.00 | 0.00 | 0.00 | 89 | 1017.5 |
| 20260906053743 | 18 | 210 | 0.0 | 0.0 | 0.00 | 0.00 | 0.00 | 88 | 1017.6 |
| 20260906053238 | 19 | 211 | 0.0 | 0.0 | 0.00 | 0.00 | 0.00 | 88 | 1017.5 |
| 20260906052733 | 19 | 17 | 1.6 | 3.2 | 0.00 | 0.00 | 0.00 | 88 | 1017.4 |
| 20260906052229 | 19 | 207 | 0.0 | 0.0 | 0.00 | 0.00 | 0.00 | 88 | 1017.3 |
| 20260906051726 | 19 | 206 | 0.0 | 0.0 | 0.00 | 0.00 | 0.00 | 88 | 1017.4 |
| 20260906051225 | 19 | 204 | 0.0 | 1.6 | 0.00 | 0.00 | 0.00 | 88 | 1017.4 |
| 20260906050721 | 19 | 177 | 1.6 | 3.2 | 0.00 | 0.00 | 0.00 | 88 | 1017.6 |
| 20260906050216 | 19 | 204 | 0.0 | 1.6 | 0.00 | 0.00 | 0.00 | 87 | 1017.6 |
| 20260906045714 | 19 | 208 | 0.0 | 1.6 | 0.00 | 0.13 | 0.13 | 87 | 1017.5 |
| 20260906045209 | 19 | 199 | 0.0 | 1.6 | 0.00 | 0.13 | 0.13 | 87 | 1017.5 |
| 20260906044705 | 19 | 205 | 0.0 | 1.6 | 0.00 | 0.13 | 0.13 | 87 | 1017.6 |
| 20260906044200 | 20 | 203 | 4.8 | 4.8 | 0.00 | 0.13 | 0.13 | 86 | 1017.9 |
| 20260906043656 | 20 | 187 | 1.6 | 3.2 | 0.00 | 0.13 | 0.13 | 86 | 1017.6 |
| 20260906043152 | 20 | 189 | 1.6 | 4.8 | 0.00 | 0.13 | 0.13 | 86 | 1017.7 |
| 20260906042651 | 20 | 203 | 0.0 | 3.2 | 0.00 | 0.13 | 0.13 | 85 | 1017.5 |
| 20260906042145 | 20 | 198 | 0.0 | 1.6 | 0.00 | 0.13 | 0.13 | 85 | 1017.8 |
| 20260906041641 | 20 | 199 | 1.6 | 3.2 | 0.00 | 0.13 | 0.13 | 85 | 1017.5 |
| 20260906041136 | 20 | 185 | 3.2 | 3.2 | 0.00 | 0.13 | 0.13 | 84 | 1017.6 |
| 20260906040631 | 20 | 185 | 3.2 | 3.2 | 0.00 | 0.13 | 0.13 | 84 | 1017.1 |
| 20260906040127 | 20 | 203 | 0.0 | 3.2 | 0.00 | 0.13 | 0.13 | 84 | 1017.4 |
| 20260906035622 | 20 | 186 | 3.2 | 4.8 | 0.00 | 0.13 | 0.13 | 83 | 1017.3 |
| 20260906035118 | 20 | 204 | 1.6 | 3.2 | 0.00 | 0.13 | 0.13 | 83 | 1017.4 |
| 20260906034618 | 20 | 206 | 1.6 | 3.2 | 0.00 | 0.13 | 0.13 | 83 | 1017.3 |
| 20260906034112 | 20 | 181 | 1.6 | 3.2 | 0.00 | 0.13 | 0.13 | 82 | 1017.3 |
| 20260906033608 | 21 | 200 | 1.6 | 8.0 | 0.00 | 0.13 | 0.13 | 82 | 1017.5 |
| 20260906033103 | 21 | 155 | 3.2 | 4.8 | 0.00 | 0.13 | 0.13 | 81 | 1017.6 |
| 20260906032600 | 21 | 180 | 1.6 | 4.8 | 0.00 | 0.13 | 0.13 | 81 | 1017.5 |
| 20260906032100 | 21 | 199 | 0.0 | 4.8 | 0.00 | 0.13 | 0.13 | 81 | 1017.6 |
| 20260906031555 | 21 | 178 | 1.6 | 3.2 | 0.00 | 0.13 | 0.13 | 80 | 1017.6 |
| 20260906031050 | 21 | 188 | 3.2 | 4.8 | 0.00 | 0.13 | 0.13 | 80 | 1017.6 |
| 20260906030549 | 21 | 203 | 1.6 | 3.2 | 0.00 | 0.13 | 0.13 | 80 | 1017.7 |
| 20260906030043 | 21 | 189 | 1.6 | 4.8 | 0.00 | 0.13 | 0.13 | 80 | 1017.7 |
| 20260906025538 | 21 | 195 | 1.6 | 1.6 | 0.00 | 0.13 | 0.13 | 80 | 1017.7 |
| 20260906025036 | 21 | 198 | 0.0 | 1.6 | 0.00 | 0.13 | 0.13 | 79 | 1018.0 |
| 20260906024531 | 21 | 197 | 0.0 | 1.6 | 0.00 | 0.13 | 0.13 | 79 | 1017.7 |
| 20260906024026 | 21 | 192 | 1.6 | 3.2 | 0.00 | 0.13 | 0.13 | 79 | 1017.7 |
| 20260906023522 | 22 | 180 | 1.6 | 1.6 | 0.00 | 0.13 | 0.13 | 78 | 1018.0 |
| 20260906023016 | 22 | 199 | 1.6 | 3.2 | 0.00 | 0.13 | 0.13 | 78 | 1017.6 |
| 20260906022511 | 22 | 204 | 0.0 | 1.6 | 0.00 | 0.13 | 0.13 | 78 | 1017.8 |
| 20260906022007 | 22 | 182 | 0.0 | 3.2 | 0.00 | 0.13 | 0.13 | 77 | 1017.7 |
| 20260906021502 | 22 | 210 | 0.0 | 1.6 | 0.00 | 0.13 | 0.13 | 77 | 1017.9 |
| 20260906020956 | 22 | 196 | 1.6 | 3.2 | 0.00 | 0.13 | 0.13 | 77 | 1017.7 |
| 20260906020445 | 22 | 191 | 1.6 | 3.2 | 0.00 | 0.13 | 0.13 | 77 | 1017.7 |
| 20260906015944 | 22 | 183 | 1.6 | 3.2 | 0.00 | 0.13 | 0.13 | 77 | 1017.5 |
| 20260906015444 | 22 | 211 | 0.0 | 1.6 | 0.00 | 0.13 | 0.13 | 76 | 1017.8 |
| 20260906014943 | 22 | 181 | 1.6 | 4.8 | 0.00 | 0.13 | 0.13 | 76 | 1017.7 |
| 20260906014438 | 22 | 191 | 0.0 | 3.2 | 0.00 | 0.13 | 0.13 | 76 | 1017.4 |
| 20260906013934 | 22 | 199 | 1.6 | 4.8 | 0.00 | 0.13 | 0.13 | 76 | 1017.3 |
| 20260906013430 | 23 | 200 | 1.6 | 1.6 | 0.00 | 0.13 | 0.13 | 75 | 1017.2 |
| 20260906012926 | 23 | 208 | 0.0 | 1.6 | 0.00 | 0.13 | 0.13 | 75 | 1017.3 |
| 20260906012425 | 23 | 208 | 0.0 | 1.6 | 0.00 | 0.13 | 0.13 | 74 | 1017.4 |
| 20260906011924 | 23 | 208 | 0.0 | 0.0 | 0.00 | 0.13 | 0.13 | 73 | 1017.1 |
| 20260906011420 | 23 | 205 | 0.0 | 1.6 | 0.00 | 0.13 | 0.13 | 73 | 1017.2 |
| 20260906010915 | 23 | 185 | 1.6 | 3.2 | 0.00 | 0.13 | 0.13 | 72 | 1017.0 |
| 20260906010411 | 23 | 196 | 1.6 | 1.6 | 0.00 | 0.13 | 0.13 | 72 | 1017.0 |
| 20260906005907 | 23 | 202 | 0.0 | 1.6 | 0.00 | 0.13 | 0.13 | 73 | 1016.9 |
| 20260906005406 | 23 | 217 | 0.0 | 0.0 | 0.00 | 0.13 | 0.13 | 72 | 1016.8 |
| 20260906004904 | 24 | 217 | 0.0 | 0.0 | 0.00 | 0.13 | 0.13 | 72 | 1016.6 |
| 20260906004359 | 24 | 215 | 0.0 | 0.0 | 0.00 | 0.13 | 0.13 | 71 | 1016.7 |
| 20260906003855 | 25 | 206 | 0.0 | 0.0 | 0.00 | 0.13 | 0.13 | 69 | 1016.5 |
| 20260906003350 | 25 | 210 | 0.0 | 0.0 | 0.00 | 0.13 | 0.13 | 69 | 1016.2 |
| 20260906002846 | 25 | 206 | 0.0 | 1.6 | 0.00 | 0.13 | 0.13 | 68 | 1016.3 |
| 20260906002344 | 25 | 203 | 1.6 | 3.2 | 0.00 | 0.13 | 0.13 | 69 | 1016.1 |
| 20260906001840 | 25 | 210 | 0.0 | 1.6 | 0.00 | 0.13 | 0.13 | 70 | 1015.8 |
| 20260906001336 | 25 | 211 | 0.0 | 0.0 | 0.00 | 0.13 | 0.13 | 70 | 1015.9 |
| 20260906000831 | 25 | 208 | 0.0 | 0.0 | 0.00 | 0.13 | 0.13 | 69 | 1015.7 |
| 20260906000326 | 25 | 198 | 0.0 | 3.2 | 0.00 | 0.13 | 0.13 | 68 | 1015.8 |
| 20260905235825 | 25 | 205 | 0.0 | 1.6 | 0.00 | 0.13 | 0.13 | 68 | 1015.9 |
| 20260905235320 | 25 | 204 | 1.6 | 1.6 | 0.00 | 0.13 | 0.13 | 68 | 1015.6 |
| 20260905234815 | 25 | 206 | 0.0 | 1.6 | 0.00 | 0.13 | 0.13 | 68 | 1015.9 |
| 20260905234311 | 25 | 202 | 1.6 | 1.6 | 0.00 | 0.13 | 0.13 | 67 | 1015.9 |
| 20260905233805 | 25 | 205 | 0.0 | 1.6 | 0.00 | 0.13 | 0.13 | 66 | 1015.7 |
| 20260905233300 | 26 | 198 | 0.0 | 1.6 | 0.00 | 0.13 | 0.13 | 66 | 1015.9 |
| 20260905232759 | 26 | 218 | 1.6 | 1.6 | 0.00 | 0.13 | 0.13 | 65 | 1015.8 |
| 20260905232255 | 26 | 177 | 1.6 | 4.8 | 0.00 | 0.13 | 0.13 | 64 | 1015.6 |
| 20260905231751 | 26 | 208 | 1.6 | 1.6 | 0.00 | 0.13 | 0.13 | 63 | 1015.6 |
| 20260905231246 | 27 | 209 | 1.6 | 3.2 | 0.00 | 0.13 | 0.13 | 62 | 1015.4 |
| 20260905230742 | 27 | 216 | 0.0 | 1.6 | 0.00 | 0.13 | 0.13 | 61 | 1015.4 |
| 20260905230240 | 27 | 229 | 1.6 | 3.2 | 0.00 | 0.13 | 0.13 | 60 | 1015.4 |
| 20260905225739 | 27 | 193 | 3.2 | 4.8 | 0.00 | 0.13 | 0.13 | 60 | 1015.5 |
| 20260905225235 | 27 | 204 | 3.2 | 8.0 | 0.00 | 0.13 | 0.13 | 60 | 1015.3 |
| 20260905224734 | 27 | 175 | 3.2 | 4.8 | 0.00 | 0.13 | 0.13 | 61 | 1015.4 |
| 20260905224230 | 27 | 201 | 1.6 | 4.8 | 0.00 | 0.13 | 0.13 | 61 | 1015.3 |
| 20260905223726 | 27 | 213 | 0.0 | 4.8 | 0.00 | 0.13 | 0.13 | 62 | 1015.6 |
| 20260905223222 | 27 | 122 | 3.2 | 4.8 | 0.00 | 0.13 | 0.13 | 63 | 1015.4 |
| 20260905222718 | 27 | 202 | 4.8 | 4.8 | 0.00 | 0.13 | 0.13 | 63 | 1015.3 |
| 20260905222217 | 27 | 193 | 0.0 | 8.0 | 0.00 | 0.13 | 0.13 | 64 | 1015.5 |
| 20260905221713 | 27 | 193 | 4.8 | 4.8 | 0.00 | 0.13 | 0.13 | 62 | 1015.5 |
| 20260905221209 | 27 | 177 | 3.2 | 8.0 | 0.00 | 0.13 | 0.13 | 62 | 1015.5 |
| 20260905220705 | 27 | 152 | 3.2 | 4.8 | 0.00 | 0.13 | 0.13 | 63 | 1015.6 |
| 20260905220201 | 27 | 107 | 3.2 | 4.8 | 0.00 | 0.13 | 0.13 | 62 | 1015.5 |
| 20260905215700 | 27 | 200 | 4.8 | 4.8 | 0.00 | 0.13 | 0.13 | 62 | 1015.8 |
| 20260905215156 | 27 | 128 | 3.2 | 3.2 | 0.00 | 0.13 | 0.13 | 61 | 1015.6 |
| 20260905214652 | 27 | 109 | 4.8 | 8.0 | 0.00 | 0.13 | 0.13 | 62 | 1015.7 |
| 20260905214147 | 27 | 193 | 4.8 | 8.0 | 0.00 | 0.13 | 0.13 | 61 | 1016.1 |
| 20260905213642 | 27 | 143 | 4.8 | 9.7 | 0.00 | 0.13 | 0.13 | 61 | 1015.7 |
| 20260905213137 | 27 | 201 | 3.2 | 8.0 | 0.00 | 0.13 | 0.13 | 61 | 1015.9 |
| 20260905212633 | 27 | 192 | 1.6 | 4.8 | 0.00 | 0.13 | 0.13 | 63 | 1015.9 |
| 20260905212132 | 27 | 122 | 3.2 | 8.0 | 0.00 | 0.13 | 0.13 | 63 | 1016.3 |
| 20260905211627 | 27 | 212 | 1.6 | 9.7 | 0.00 | 0.13 | 0.13 | 63 | 1016.2 |
| 20260905211123 | 27 | 209 | 1.6 | 4.8 | 0.00 | 0.13 | 0.13 | 64 | 1016.2 |
| 20260905210619 | 27 | 201 | 0.0 | 3.2 | 0.00 | 0.13 | 0.13 | 65 | 1016.2 |
| 20260905210113 | 26 | 172 | 3.2 | 9.7 | 0.00 | 0.13 | 0.13 | 64 | 1016.2 |
| 20260905205613 | 26 | 139 | 3.2 | 8.0 | 0.00 | 0.13 | 0.13 | 64 | 1016.1 |